Back to catalog

FREGAT R/B

AliveHEO
NORAD 45359·ROCKET BODY·🇷🇺 Russia

Launched Mar 16, 2020 from Plesetsk Cosmodrome

Loading…

Next Passes (next 24 hours)

TLE

FreshSource: Space-Track

Epoch: Sep 14, 2026, 06:20 UTC

1 45359U 20018B   26257.26435972 -.00000059  00000-0  00000-0 0  9992
2 45359  64.3207 313.4171 0057257 137.9749 222.5379  2.07974582 49339

Track FREGAT R/B in real time with AllMySat

Download on the App Store